Location: Newark
(46.7636°N, 1.8358°W)
Time: 05:22:18
(UTC+00:00)

Envisat - Visible Passes

Search period start: 20 September 2019 00:00
Search period end: 30 September 2019 00:00
Orbit: 764 x 766 km, 98.1° (Epoch: 19 September)

Date Brightness Start Highest point End Pass type
(mag) Time Alt. Az. Time Alt. Az. Time Alt. Az.
20 Sep 5.7 19:26:20 10° SW 19:30:04 21° W 19:33:50 10° NW visible
21 Sep 4.5 18:48:12 10° SSW 18:53:00 42° W 18:57:50 10° NNW visible
22 Sep 6.2 19:54:02 10° WSW 19:55:54 12° W 19:57:48 10° WNW visible
23 Sep 5.4 19:14:32 10° SSW 19:18:42 25° W 19:22:54 10° NW visible
24 Sep 4.0 18:36:45 10° S 18:41:42 52° W 18:46:41 10° NNW visible
25 Sep 6.0 19:41:36 10° WSW 19:44:30 15° W 19:47:24 10° NW visible
26 Sep 5.0 19:02:52 10° SSW 19:07:21 31° W 19:11:52 10° NNW visible
27 Sep 3.5 18:25:22 10° S 18:30:24 65° WSW 18:35:29 10° NNW visible
28 Sep 5.8 19:29:34 10° SW 19:33:06 19° W 19:36:40 10° NW visible
29 Sep 4.6 18:51:18 10° SSW 18:56:01 39° W 19:00:47 10° NNW visible
